This is the latest recevied weather packets stored in our database for station/object KA0EGE. If no packets are shown the sender has not sent any weather packets the latest 10 day(s).
| Time | Temp. | Humidity | Pressure | Rain* | Wind** | Luminosity | Snow |
|---|---|---|---|---|---|---|---|
| 1777768720 | 18.89° C | 65% | 1017.2 hPa | 0 mm | - | 0 W/m² | - |
| 1777768416 | 19.44° C | 63% | 1016.9 hPa | 0 mm | - | 1 W/m² | - |
| 1777768113 | 19.44° C | 63% | 1017 hPa | 0 mm | - | 2 W/m² | - |
| 1777767811 | 20° C | 62% | 1016.8 hPa | 0 mm | - | 4 W/m² | - |
| 1777767507 | 20° C | 61% | 1016.7 hPa | 0 mm | - | 6 W/m² | - |
| 1777767203 | 20° C | 61% | 1016.7 hPa | 0 mm | - | 10 W/m² | - |
| 1777766901 | 20.56° C | 61% | 1016.3 hPa | 0 mm | - | 14 W/m² | - |
| 1777766598 | 20.56° C | 60% | 1016.3 hPa | 0 mm | - | 18 W/m² | - |
| 1777766295 | 20.56° C | 60% | 1016.2 hPa | 0 mm | - | 22 W/m² | - |
| 1777765992 | 20.56° C | 59% | 1016 hPa | 0 mm | - | 26 W/m² | - |
| 1777765689 | 21.11° C | 59% | 1015.9 hPa | 0 mm | - | 29 W/m² | - |
| 1777765386 | 21.11° C | 59% | 1016 hPa | 0 mm | - | 32 W/m² | - |
| 1777765082 | 21.11° C | 59% | 1015.7 hPa | 0 mm | - | 35 W/m² | - |
| 1777764779 | 21.11° C | 59% | 1015.8 hPa | 0 mm | - | 38 W/m² | - |
| 1777764475 | 21.11° C | 58% | 1015.7 hPa | 0 mm | - | 41 W/m² | - |
| 1777764172 | 21.67° C | 57% | 1015.7 hPa | 0 mm | - | 43 W/m² | - |
| 1777763869 | 21.67° C | 57% | 1015.6 hPa | 0 mm | - | 83 W/m² | - |
| 1777763566 | 21.67° C | 56% | 1015.7 hPa | 0 mm | - | 99 W/m² | - |
| 1777763265 | 21.67° C | 56% | 1015.6 hPa | 0 mm | - | 113 W/m² | - |
| 1777762963 | 21.67° C | 56% | 1015.5 hPa | 0 mm | - | 127 W/m² | - |
| 1777762659 | 22.22° C | 54% | 1015.6 hPa | 0 mm | - | 142 W/m² | - |
| 1777762356 | 22.22° C | 53% | 1015.5 hPa | 0 mm | - | 159 W/m² | - |
| 1777762052 | 22.78° C | 54% | 1015.3 hPa | 0 mm | - | 174 W/m² | - |
| 1777761749 | 22.22° C | 54% | 1015.4 hPa | 0 mm | - | 192 W/m² | - |
| 1777761446 | 22.22° C | 55% | 1015.4 hPa | 0 mm | - | 209 W/m² | - |
* Rain latest hour (hover to see other rain measurements)
** Current wind speed in m/s (hover to see current wind gust speed)